Weather History for KMGC - May, 2013

Change the Weather History Date:

Wednesday, May 1, 2013

  Actual Average (KVPZ) Record (KVPZ)
Temperature  
Mean Temperature 72 °F 55 °F  
Max Temperature 82 °F 66 °F 87 °F (2007)
Min Temperature 62 °F 43 °F 31 °F (2005)
Degree Days  
Heating Degree Days 0 11  
Month to date heating degree days 11  
Since 1 July heating degree days 6070  
Cooling Degree Days 7 0  
Month to date cooling degree days 0  
Year to date cooling degree days 5  
Growing Degree Days 22 (Base 50)    
Moisture  
Dew Point 51 °F    
Average Humidity 50    
Maximum Humidity 73    
Minimum Humidity 28    
Precipitation  
Precipitation 0.00 in 0.14 in 0.58 in (2003)
Month to date precipitation 0.14  
Year to date precipitation 9.32  
Sea Level Pressure  
Sea Level Pressure 30.11 in    
Wind  
Wind Speed 6 mph (South)    
Max Wind Speed 13 mph    
Max Gust Speed 22 mph    
Visibility 10 miles    
Events      
T = Trace of Precipitation, MM = Missing Value Source: NWS Daily Summary

Daily Weather History Graph

Daily Weather History Graph

Search for Another Location

Airport or City:

Trip Planner

Search our weather history database for the weather conditions in past years. The results will help you decide how hot, cold, wet, or windy it might be!

Date:

Astronomy

May. 01, 2013 Rise Set
Actual Time 5:43 AM CDT 7:45 PM CDT
Civil Twilight 5:13 AM CDT 8:16 PM CDT
Nautical Twilight 4:36 AM CDT 8:53 PM CDT
Astronomical Twilight 3:55 AM CDT 9:33 PM CDT
Moon 12:55 AM CDT (5/1) 11:21 AM CDT (5/1)
Length of Visible Light 15h 02m
Length of Day
14h 02m
Waning Gibbous, 59% of the Moon is Illuminated
May 1
Waning Gibbous
May 2
Last Quarter
May 9
New
May 17
First Quarter
May 24
Full

Hourly Weather History & Observations

Time (CDT) Temp. Dew Point Humidity Pressure Visibility Wind Dir Wind Speed Gust Speed Precip Events Conditions
12:15 AM 68.0 °F 57.2 °F 68% 30.00 in 10.0 mi South 5.8 mph - N/A   Clear
12:35 AM 68.0 °F 55.4 °F 64% 30.00 in 10.0 mi South 4.6 mph - N/A   Clear
12:55 AM 66.2 °F 55.4 °F 68% 30.01 in 10.0 mi South 4.6 mph - N/A   Clear
1:15 AM 66.2 °F 55.4 °F 68% 30.01 in 10.0 mi South 4.6 mph - N/A   Clear
1:35 AM 64.4 °F 55.4 °F 73% 30.02 in 10.0 mi SSE 4.6 mph - N/A   Clear
1:55 AM 64.4 °F 55.4 °F 73% 30.02 in 10.0 mi South 5.8 mph - N/A   Clear
2:15 AM 64.4 °F 55.4 °F 73% 30.02 in 10.0 mi South 4.6 mph - N/A   Clear
2:35 AM 64.4 °F 55.4 °F 73% 30.02 in 10.0 mi South 4.6 mph - N/A   Clear
2:55 AM 64.4 °F 55.4 °F 73% 30.03 in 10.0 mi South 4.6 mph - N/A   Clear
3:15 AM 64.4 °F 55.4 °F 73% 30.04 in 10.0 mi SSE 4.6 mph - N/A   Clear
3:35 AM 64.4 °F 53.6 °F 68% 30.04 in 10.0 mi SSE 5.8 mph - N/A   Clear
3:55 AM 64.4 °F 53.6 °F 68% 30.05 in 10.0 mi South 4.6 mph - N/A   Clear
4:15 AM 64.4 °F 53.6 °F 68% 30.05 in 10.0 mi SSE 8.1 mph - N/A   Clear
4:35 AM 62.6 °F 53.6 °F 72% 30.06 in 10.0 mi South 4.6 mph - N/A   Clear
4:55 AM 62.6 °F 51.8 °F 68% 30.06 in 10.0 mi South 8.1 mph - N/A   Clear
5:15 AM 62.6 °F 51.8 °F 68% 30.07 in 10.0 mi South 6.9 mph - N/A   Clear
5:35 AM 62.6 °F 51.8 °F 68% 30.08 in 10.0 mi South 4.6 mph - N/A   Clear
5:55 AM 62.6 °F 51.8 °F 68% 30.09 in 10.0 mi South 6.9 mph - N/A   Clear
6:15 AM 62.6 °F 51.8 °F 68% 30.10 in 10.0 mi South 8.1 mph - N/A   Clear
6:35 AM 62.6 °F 51.8 °F 68% 30.10 in 10.0 mi South 5.8 mph - N/A   Clear
6:55 AM 64.4 °F 51.8 °F 64% 30.10 in 10.0 mi South 5.8 mph - N/A   Clear
7:15 AM 66.2 °F 51.8 °F 60% 30.11 in 10.0 mi South 4.6 mph - N/A   Clear
7:35 AM 68.0 °F 51.8 °F 56% 30.11 in 10.0 mi SSW 8.1 mph - N/A   Clear
7:55 AM 68.0 °F 51.8 °F 56% 30.12 in 10.0 mi South 8.1 mph - N/A   Clear
8:15 AM 69.8 °F 51.8 °F 53% 30.12 in 10.0 mi South 6.9 mph - N/A   Clear
8:35 AM 71.6 °F 53.6 °F 53% 30.12 in 10.0 mi SSW 6.9 mph - N/A   Clear
8:55 AM 73.4 °F 51.8 °F 47% 30.12 in 10.0 mi SW 5.8 mph - N/A   Clear
9:15 AM 75.2 °F 53.6 °F 47% 30.13 in 10.0 mi South 6.9 mph - N/A   Clear
9:35 AM 77.0 °F 51.8 °F 41% 30.12 in 10.0 mi SSW 6.9 mph - N/A   Clear
9:55 AM 77.0 °F 51.8 °F 41% 30.12 in 10.0 mi SW 6.9 mph - N/A   Clear
10:15 AM 77.0 °F 50.0 °F 39% 30.13 in 10.0 mi SSW 6.9 mph - N/A   Clear
10:35 AM 78.8 °F 50.0 °F 36% 30.13 in 10.0 mi SW 8.1 mph - N/A   Clear
10:55 AM 78.8 °F 50.0 °F 36% 30.13 in 10.0 mi SSW 9.2 mph - N/A   Clear
11:15 AM 78.8 °F 50.0 °F 36% 30.14 in 10.0 mi South 6.9 mph - N/A   Clear
11:35 AM 80.6 °F 50.0 °F 34% 30.13 in 10.0 mi SW 9.2 mph - N/A   Clear
11:55 AM 78.8 °F 50.0 °F 36% 30.13 in 10.0 mi SSW 6.9 mph - N/A   Clear
12:15 PM 80.6 °F 50.0 °F 34% 30.13 in 10.0 mi South 5.8 mph - N/A   Scattered Clouds
12:35 PM 80.6 °F 48.2 °F 32% 30.13 in 10.0 mi SSE 4.6 mph - N/A   Scattered Clouds
12:55 PM 80.6 °F 48.2 °F 32% 30.13 in 10.0 mi South 6.9 mph 18.4 mph N/A   Scattered Clouds
1:15 PM 80.6 °F 48.2 °F 32% 30.12 in 10.0 mi SE 6.9 mph - N/A   Clear
1:35 PM 82.4 °F 46.4 °F 28% 30.12 in 10.0 mi South 11.5 mph - N/A   Scattered Clouds
1:55 PM 82.4 °F 46.4 °F 28% 30.12 in 10.0 mi SE 11.5 mph 17.3 mph N/A   Scattered Clouds
2:15 PM 82.4 °F 46.4 °F 28% 30.12 in 10.0 mi South 10.4 mph 16.1 mph N/A   Clear
2:35 PM 82.4 °F 46.4 °F 28% 30.12 in 10.0 mi South 8.1 mph - N/A   Clear
2:55 PM 82.4 °F 46.4 °F 28% 30.12 in 10.0 mi South 8.1 mph 21.9 mph N/A   Clear
3:15 PM 82.4 °F 46.4 °F 28% 30.11 in 10.0 mi SSE 8.1 mph 18.4 mph N/A   Clear
3:35 PM 82.4 °F 46.4 °F 28% 30.12 in 10.0 mi SE 5.8 mph 17.3 mph N/A   Clear
3:55 PM 82.4 °F 46.4 °F 28% 30.12 in 10.0 mi South 12.7 mph 16.1 mph N/A   Clear
4:15 PM 82.4 °F 46.4 °F 28% 30.12 in 10.0 mi South 8.1 mph 16.1 mph N/A   Clear
4:35 PM 82.4 °F 46.4 °F 28% 30.12 in 10.0 mi South 10.4 mph 17.3 mph N/A   Clear
4:55 PM 82.4 °F 46.4 °F 28% 30.13 in 10.0 mi South 12.7 mph 19.6 mph N/A   Scattered Clouds
5:15 PM 82.4 °F 48.2 °F 30% 30.13 in 10.0 mi South 9.2 mph - N/A   Scattered Clouds
5:35 PM 80.6 °F 48.2 °F 32% 30.12 in 10.0 mi South 8.1 mph 16.1 mph N/A   Scattered Clouds
5:55 PM 80.6 °F 48.2 °F 32% 30.12 in 10.0 mi SE 11.5 mph 19.6 mph N/A   Scattered Clouds
6:15 PM 80.6 °F 48.2 °F 32% 30.12 in 10.0 mi South 6.9 mph 17.3 mph N/A   Scattered Clouds
6:35 PM 78.8 °F 46.4 °F 32% 30.12 in 10.0 mi SSE 5.8 mph - N/A   Clear
6:55 PM 78.8 °F 48.2 °F 34% 30.13 in 10.0 mi South 9.2 mph - N/A   Clear
7:15 PM 77.0 °F 48.2 °F 36% 30.13 in 10.0 mi South 4.6 mph - N/A   Clear
7:35 PM 77.0 °F 48.2 °F 36% 30.13 in 10.0 mi South 4.6 mph - N/A   Clear
7:55 PM 77.0 °F 50.0 °F 39% 30.14 in 10.0 mi South 3.5 mph - N/A   Clear
8:15 PM 73.4 °F 50.0 °F 44% 30.14 in 10.0 mi Calm Calm - N/A   Clear
8:35 PM 71.6 °F 51.8 °F 50% 30.15 in 10.0 mi Calm Calm - N/A   Clear
8:55 PM 71.6 °F 51.8 °F 50% 30.15 in 10.0 mi Calm Calm - N/A   Clear
9:15 PM 69.8 °F 51.8 °F 53% 30.15 in 10.0 mi Calm Calm - N/A   Clear
9:35 PM 68.0 °F 53.6 °F 60% 30.16 in 10.0 mi Calm Calm - N/A   Clear
9:55 PM 66.2 °F 53.6 °F 64% 30.16 in 10.0 mi Calm Calm - N/A   Clear
10:35 PM 64.4 °F 53.6 °F 68% 30.15 in 10.0 mi Calm Calm - N/A   Clear
10:55 PM 62.6 °F 53.6 °F 72% 30.15 in 10.0 mi Calm Calm - N/A   Clear
11:15 PM 62.6 °F 53.6 °F 72% 30.15 in 10.0 mi Calm Calm - N/A   Clear
11:35 PM 62.6 °F 53.6 °F 72% 30.15 in 10.0 mi Calm Calm - N/A   Clear
11:55 PM 64.4 °F 53.6 °F 68% 30.15 in 10.0 mi Calm Calm - N/A   Clear